Time,TemperatureF,DewpointF,PressureIn,WindDirection,WindDirectionDegrees,WindSpeedMPH,WindSpeedGustMPH,Humidity,HourlyPrecipIn,Conditions,Clouds,dailyrainin,SoftwareType,DateUTC
2013-01-19 00:08:00,33.1,25.4,29.59,East,79,8.0,13.0,73,0.00,CLR,,0.00,WeatherDisplay:10.37,2013-01-19 00:08:00,
2013-01-19 00:23:00,33.2,25.5,29.59,NE,45,13.0,14.0,73,0.00,CLR,,0.00,WeatherDisplay:10.37,2013-01-19 00:23:00,
2013-01-19 00:38:00,33.3,25.5,29.59,ESE,102,7.0,13.0,73,0.00,CLR,,0.00,WeatherDisplay:10.37,2013-01-19 00:38:00,
2013-01-19 00:53:00,33.3,25.5,29.59,East,88,10.0,15.0,73,0.00,CLR,,0.00,WeatherDisplay:10.37,2013-01-19 00:53:00,
2013-01-19 01:08:00,33.4,25.4,29.59,East,80,9.0,17.0,72,0.00,CLR,,0.00,WeatherDisplay:10.37,2013-01-19 01:08:00,
2013-01-19 01:23:00,33.4,25.7,29.59,ENE,61,9.0,14.0,73,0.00,CLR,,0.00,WeatherDisplay:10.37,2013-01-19 01:23:00,
2013-01-19 01:38:00,33.6,26.2,29.59,East,81,8.0,15.0,74,0.00,CLR,,0.00,WeatherDisplay:10.37,2013-01-19 01:38:00,
2013-01-19 01:53:00,33.8,26.4,29.59,NE,50,13.0,13.0,74,0.00,CLR,,0.00,WeatherDisplay:10.37,2013-01-19 01:53:00,
2013-01-19 02:08:00,33.8,26.4,29.59,NE,55,10.0,13.0,74,0.00,CLR,,0.00,WeatherDisplay:10.37,2013-01-19 02:08:00,
2013-01-19 02:23:00,33.8,26.4,29.59,SE,132,8.0,10.0,74,0.00,CLR,,0.00,WeatherDisplay:10.37,2013-01-19 02:23:00,
2013-01-19 02:38:00,34.0,26.6,29.62,ENE,65,10.0,13.0,74,0.00,CLR,,0.00,WeatherDisplay:10.37,2013-01-19 02:38:00,
2013-01-19 02:53:00,34.2,26.7,29.62,East,82,13.0,13.0,74,0.00,CLR,,0.00,WeatherDisplay:10.37,2013-01-19 02:53:00,
2013-01-19 03:08:00,34.2,27.4,29.62,East,82,8.0,13.0,76,0.00,CLR,,0.00,WeatherDisplay:10.37,2013-01-19 03:08:00,
2013-01-19 03:23:00,33.6,28.1,29.62,ENE,64,8.0,11.0,80,0.00,CLR,,0.00,WeatherDisplay:10.37,2013-01-19 03:23:00,
2013-01-19 03:38:00,33.3,28.7,29.62,East,83,7.0,10.0,83,0.00,CLR,,0.00,WeatherDisplay:10.37,2013-01-19 03:38:00,
2013-01-19 03:53:00,33.3,28.9,29.62,East,90,8.0,14.0,84,0.00,CLR,,0.00,WeatherDisplay:10.37,2013-01-19 03:53:00,
2013-01-19 04:08:00,33.4,28.8,29.62,East,88,15.0,15.0,83,0.00,CLR,,0.00,WeatherDisplay:10.37,2013-01-19 04:08:00,
2013-01-19 04:23:00,33.4,27.9,29.62,ENE,76,7.0,14.0,80,0.00,CLR,,0.00,WeatherDisplay:10.37,2013-01-19 04:23:00,
2013-01-19 04:38:00,33.6,28.1,29.62,East,83,6.0,10.0,80,0.00,CLR,,0.00,WeatherDisplay:10.37,2013-01-19 04:38:00,
2013-01-19 04:53:00,33.6,27.8,29.65,East,90,6.0,9.0,79,0.00,CLR,,0.00,WeatherDisplay:10.37,2013-01-19 04:53:00,
2013-01-19 05:08:00,33.8,27.7,29.62,East,80,7.0,12.0,78,0.00,CLR,,0.00,WeatherDisplay:10.37,2013-01-19 05:08:00,
2013-01-19 05:23:00,33.8,27.4,29.65,ENE,76,6.0,7.0,77,0.00,CLR,,0.00,WeatherDisplay:10.37,2013-01-19 05:23:00,
2013-01-19 05:38:00,33.8,26.4,29.65,East,90,8.0,10.0,74,0.00,CLR,,0.00,WeatherDisplay:10.37,2013-01-19 05:38:00,
2013-01-19 05:53:00,34.0,26.2,29.65,NE,52,8.0,8.0,73,0.00,CLR,,0.00,WeatherDisplay:10.37,2013-01-19 05:53:00,
2013-01-19 06:08:00,34.0,26.6,29.65,East,88,5.0,11.0,74,0.00,CLR,,0.00,WeatherDisplay:10.37,2013-01-19 06:08:00,
2013-01-19 06:23:00,34.0,26.6,29.65,ENE,60,7.0,10.0,74,0.00,CLR,,0.00,WeatherDisplay:10.37,2013-01-19 06:23:00,
2013-01-19 06:38:00,33.9,26.5,29.65,NE,50,5.0,10.0,74,0.00,CLR,,0.00,WeatherDisplay:10.37,2013-01-19 06:38:00,
2013-01-19 06:53:00,33.8,26.4,29.65,East,84,6.0,6.0,74,0.00,CLR,,0.00,WeatherDisplay:10.37,2013-01-19 06:53:00,
2013-01-19 07:08:00,33.6,26.2,29.65,ENE,69,5.0,8.0,74,0.00,CLR,,0.00,WeatherDisplay:10.37,2013-01-19 07:08:00,
2013-01-19 07:23:00,33.3,25.9,29.65,ENE,73,6.0,8.0,74,0.00,CLR,,0.00,WeatherDisplay:10.37,2013-01-19 07:23:00,
2013-01-19 07:38:00,33.1,26.0,29.68,ENE,77,9.0,10.0,75,0.00,CLR,,0.00,WeatherDisplay:10.37,2013-01-19 07:38:00,
2013-01-19 07:53:00,33.1,26.3,29.68,NE,45,7.0,10.0,76,0.00,CLR,,0.00,WeatherDisplay:10.37,2013-01-19 07:53:00,
2013-01-19 08:08:00,32.9,26.2,29.68,East,85,7.0,10.0,76,0.00,CLR,,0.00,WeatherDisplay:10.37,2013-01-19 08:08:00,
2013-01-19 08:23:00,33.1,26.7,29.68,ENE,61,7.0,8.0,77,0.00,CLR,,0.00,WeatherDisplay:10.37,2013-01-19 08:23:00,
2013-01-19 08:38:00,32.9,26.2,29.68,NE,55,7.0,8.0,76,0.00,CLR,,0.00,WeatherDisplay:10.37,2013-01-19 08:38:00,
2013-01-19 08:53:00,32.9,26.5,29.68,ENE,62,14.0,14.0,77,0.00,CLR,,0.00,WeatherDisplay:10.37,2013-01-19 08:53:00,
2013-01-19 09:08:00,32.9,26.8,29.71,NE,43,12.0,14.0,78,0.00,CLR,,0.00,WeatherDisplay:10.37,2013-01-19 09:08:00,
2013-01-19 09:23:00,32.7,26.6,29.71,NE,47,9.0,12.0,78,0.00,CLR,,0.00,WeatherDisplay:10.37,2013-01-19 09:23:00,
2013-01-19 09:38:00,32.7,26.9,29.71,ENE,66,6.0,10.0,79,0.00,CLR,,0.00,WeatherDisplay:10.37,2013-01-19 09:38:00,
2013-01-19 09:53:00,32.7,27.2,29.74,ENE,76,6.0,10.0,80,0.00,CLR,,0.00,WeatherDisplay:10.37,2013-01-19 09:53:00,
2013-01-19 10:08:00,32.9,28.0,29.74,NE,54,8.0,10.0,82,0.00,CLR,,0.00,WeatherDisplay:10.37,2013-01-19 10:08:00,
2013-01-19 10:23:00,33.1,28.5,29.74,ENE,77,8.0,10.0,83,0.00,CLR,,0.00,WeatherDisplay:10.37,2013-01-19 10:23:00,
2013-01-19 10:38:00,33.4,28.8,29.74,NE,37,6.0,9.0,83,0.00,CLR,,0.00,WeatherDisplay:10.37,2013-01-19 10:38:00,
2013-01-19 10:53:00,33.8,29.2,29.74,ENE,57,6.0,9.0,83,0.00,CLR,,0.00,WeatherDisplay:10.37,2013-01-19 10:53:00,
2013-01-19 11:08:00,34.0,29.4,29.74,East,85,8.0,8.0,83,0.00,CLR,,0.00,WeatherDisplay:10.37,2013-01-19 11:08:00,
2013-01-19 12:53:00,35.4,30.5,29.74,NE,54,7.0,7.0,82,0.00,CLR,,0.00,WeatherDisplay:10.37,2013-01-19 12:53:00,
2013-01-19 13:08:00,35.4,30.8,29.74,NE,50,6.0,7.0,83,0.00,CLR,,0.00,WeatherDisplay:10.37,2013-01-19 13:08:00,
2013-01-19 13:23:00,35.4,31.1,29.74,NE,53,5.0,10.0,84,0.00,CLR,,0.00,WeatherDisplay:10.37,2013-01-19 13:23:00,
2013-01-19 13:38:00,35.6,30.9,29.74,NE,55,7.0,7.0,83,0.00,CLR,,0.00,WeatherDisplay:10.37,2013-01-19 13:38:00,
2013-01-19 13:53:00,35.8,31.1,29.74,ENE,75,6.0,7.0,83,0.00,CLR,,0.00,WeatherDisplay:10.37,2013-01-19 13:53:00,
2013-01-19 14:08:00,35.8,30.9,29.74,ENE,68,2.0,6.0,82,0.00,CLR,,0.00,WeatherDisplay:10.37,2013-01-19 14:08:00,
2013-01-19 14:23:00,36.3,31.0,29.74,ENE,77,3.0,8.0,81,0.00,CLR,,0.00,WeatherDisplay:10.37,2013-01-19 14:23:00,
2013-01-19 14:38:00,36.6,30.7,29.74,ENE,74,5.0,5.0,79,0.00,CLR,,0.00,WeatherDisplay:10.37,2013-01-19 14:38:00,
2013-01-19 14:53:00,36.5,30.3,29.74,NE,46,5.0,12.0,78,0.00,CLR,,0.00,WeatherDisplay:10.37,2013-01-19 14:53:00,
2013-01-19 15:08:00,36.3,30.1,29.74,NE,54,6.0,8.0,78,0.00,CLR,,0.00,WeatherDisplay:10.37,2013-01-19 15:08:00,
2013-01-19 15:23:00,36.0,29.4,29.74,ENE,75,5.0,9.0,77,0.00,CLR,,0.00,WeatherDisplay:10.37,2013-01-19 15:23:00,
2013-01-19 15:38:00,35.6,29.5,29.74,NE,49,6.0,6.0,78,0.00,CLR,,0.00,WeatherDisplay:10.37,2013-01-19 15:38:00,
2013-01-19 15:53:00,35.4,29.6,29.74,NE,50,8.0,8.0,79,0.00,CLR,,0.00,WeatherDisplay:10.37,2013-01-19 15:53:00,
2013-01-19 16:08:00,35.4,29.9,29.74,ENE,68,6.0,8.0,80,0.00,CLR,,0.00,WeatherDisplay:10.37,2013-01-19 16:08:00,
2013-01-19 16:23:00,35.1,29.8,29.74,East,88,5.0,13.0,81,0.00,CLR,,0.00,WeatherDisplay:10.37,2013-01-19 16:23:00,
2013-01-19 16:38:00,35.1,30.1,29.74,ENE,69,8.0,12.0,82,0.00,CLR,,0.00,WeatherDisplay:10.37,2013-01-19 16:38:00,
2013-01-19 16:53:00,34.9,29.9,29.77,East,79,7.0,11.0,82,0.00,CLR,,0.00,WeatherDisplay:10.37,2013-01-19 16:53:00,
2013-01-19 17:08:00,34.7,30.1,29.77,ENE,57,6.0,7.0,83,0.00,CLR,,0.00,WeatherDisplay:10.37,2013-01-19 17:08:00,
2013-01-19 17:38:00,34.7,30.7,29.77,NE,50,5.0,9.0,85,0.00,CLR,,0.00,WeatherDisplay:10.37,2013-01-19 17:38:00,
2013-01-19 17:53:00,34.6,30.9,29.77,ENE,68,8.0,9.0,86,0.00,CLR,,0.00,WeatherDisplay:10.37,2013-01-19 17:53:00,
2013-01-19 18:08:00,34.5,30.8,29.77,ENE,71,5.0,9.0,86,0.00,CLR,,0.00,WeatherDisplay:10.37,2013-01-19 18:08:00,
2013-01-19 18:23:00,34.5,31.0,29.77,ENE,67,7.0,8.0,87,0.00,CLR,,0.00,WeatherDisplay:10.37,2013-01-19 18:23:00,
2013-01-19 18:38:00,34.5,31.0,29.77,ENE,70,6.0,8.0,87,0.00,CLR,,0.00,WeatherDisplay:10.37,2013-01-19 18:38:00,
2013-01-19 18:53:00,34.5,31.3,29.77,East,83,6.0,9.0,88,0.00,CLR,,0.00,WeatherDisplay:10.37,2013-01-19 18:53:00,
2013-01-19 19:23:00,34.3,31.2,29.77,NNE,28,5.0,7.0,88,0.00,CLR,,0.00,WeatherDisplay:10.37,2013-01-19 19:23:00,
2013-01-19 19:38:00,34.3,31.2,29.77,ENE,61,5.0,8.0,88,0.00,CLR,,0.00,WeatherDisplay:10.37,2013-01-19 19:38:00,
2013-01-19 19:53:00,34.2,31.0,29.80,NE,53,2.0,8.0,88,0.00,CLR,,0.00,WeatherDisplay:10.37,2013-01-19 19:53:00,
2013-01-19 20:08:00,34.2,30.7,29.80,NE,44,2.0,6.0,87,0.00,CLR,,0.00,WeatherDisplay:10.37,2013-01-19 20:08:00,
2013-01-19 20:23:00,34.2,31.0,29.80,East,86,6.0,6.0,88,0.00,CLR,,0.00,WeatherDisplay:10.37,2013-01-19 20:23:00,
2013-01-19 20:38:00,34.2,30.7,29.80,NE,47,3.0,8.0,87,0.00,CLR,,0.00,WeatherDisplay:10.37,2013-01-19 20:38:00,
2013-01-19 20:53:00,34.2,30.7,29.77,ENE,73,6.0,8.0,87,0.00,CLR,,0.00,WeatherDisplay:10.37,2013-01-19 20:53:00,
2013-01-19 21:08:00,34.2,31.0,29.77,NE,41,5.0,7.0,88,0.00,CLR,,0.00,WeatherDisplay:10.37,2013-01-19 21:08:00,
2013-01-19 21:23:00,34.0,30.8,29.77,NE,48,6.0,9.0,88,0.00,CLR,,0.00,WeatherDisplay:10.37,2013-01-19 21:23:00,
2013-01-19 21:53:00,33.8,30.9,29.77,NE,41,5.0,6.0,89,0.00,CLR,,0.00,WeatherDisplay:10.37,2013-01-19 21:53:00,
2013-01-19 22:08:00,33.8,30.9,29.77,NE,41,7.0,10.0,89,0.00,CLR,,0.00,WeatherDisplay:10.37,2013-01-19 22:08:00,
2013-01-19 22:23:00,33.8,31.2,29.77,East,79,7.0,9.0,90,0.00,CLR,,0.00,WeatherDisplay:10.37,2013-01-19 22:23:00,
2013-01-19 22:38:00,33.8,31.2,29.77,ENE,70,5.0,10.0,90,0.00,CLR,,0.00,WeatherDisplay:10.37,2013-01-19 22:38:00,
2013-01-19 23:08:00,33.6,31.3,29.77,ENE,59,3.0,7.0,91,0.00,CLR,,0.00,WeatherDisplay:10.37,2013-01-19 23:08:00,
2013-01-19 23:23:00,33.6,31.3,29.77,NE,37,7.0,7.0,91,0.00,CLR,,0.00,WeatherDisplay:10.37,2013-01-19 23:23:00,
2013-01-19 23:38:00,33.6,31.3,29.77,ENE,68,5.0,8.0,91,0.00,CLR,,0.00,WeatherDisplay:10.37,2013-01-19 23:38:00,
2013-01-19 23:53:00,33.8,31.2,29.77,NE,54,5.0,9.0,90,0.00,CLR,,0.00,WeatherDisplay:10.37,2013-01-19 23:53:00,